GW3919 Weather Reports


Display with metric or nautical units.
time (UTC)temp
F
wind
direction
speed
MPH
gust
MPH
rain 1hr
in
rain 24hr
in
rain mn
in
humidity
%
barometer
mb
20260906200909 101 289 3.0 5.0 0.00 0.00 0.00 46 1012.6
20260906200406 100 265 1.0 5.0 0.00 0.00 0.00 46 1012.7
20260906195900 101 259 3.0 4.0 0.00 0.00 0.00 46 1012.6
20260906195356 103 299 5.0 5.0 0.00 0.00 0.00 45 1012.7
20260906194852 101 278 3.0 5.0 0.00 0.00 0.00 45 1012.6
20260906194348 101 253 4.0 5.0 0.00 0.00 0.00 47 1012.7
20260906193843 100 273 2.0 6.0 0.00 0.00 0.00 46 1012.8
20260906193338 102 346 0.0 2.0 0.00 0.00 0.00 45 1012.5
20260906192833 100 300 4.0 5.0 0.00 0.00 0.00 46 1013.0
20260906192327 100 290 2.0 5.0 0.00 0.00 0.00 48 1012.8
20260906191826 101 248 3.0 6.0 0.00 0.00 0.00 46 1013.1
20260906191321 101 321 2.0 6.0 0.00 0.00 0.00 46 1013.0
20260906190816 101 244 2.0 4.0 0.00 0.00 0.00 46 1012.9
20260906190315 100 285 3.0 5.0 0.00 0.00 0.00 47 1013.1
20260906185815 97 253 3.0 4.0 0.00 0.00 0.00 50 1013.0
20260906185314 99 290 3.0 7.0 0.00 0.00 0.00 48 1013.3
20260906184809 98 264 2.0 4.0 0.00 0.00 0.00 49 1013.0
20260906184304 98 256 3.0 4.0 0.00 0.00 0.00 50 1013.3
20260906183759 99 277 3.0 5.0 0.00 0.00 0.00 49 1013.4
20260906183256 98 271 1.0 3.0 0.00 0.00 0.00 51 1013.4
20260906182755 99 265 3.0 6.0 0.00 0.00 0.00 51 1013.5
20260906182251 99 300 2.0 4.0 0.00 0.00 0.00 51 1013.4
20260906181746 98 322 2.0 5.0 0.00 0.00 0.00 51 1013.8
20260906181242 98 303 2.0 4.0 0.00 0.00 0.00 52 1013.6
20260906180737 99 297 0.0 7.0 0.00 0.00 0.00 51 1013.9
20260906180232 96 269 2.0 4.0 0.00 0.00 0.00 54 1013.9
20260906175730 97 304 2.0 7.0 0.00 0.00 0.00 53 1014.2
20260906175226 98 267 3.0 4.0 0.00 0.00 0.00 52 1013.9
20260906174723 98 244 4.0 5.0 0.00 0.00 0.00 53 1014.2
20260906174218 97 242 3.0 6.0 0.00 0.00 0.00 53 1014.1
20260906173713 97 303 3.0 6.0 0.00 0.00 0.00 54 1014.2
20260906173209 97 278 3.0 5.0 0.00 0.00 0.00 53 1014.3
20260906172703 98 252 2.0 5.0 0.00 0.00 0.00 53 1014.4
20260906172159 97 89 2.0 4.0 0.00 0.00 0.00 53 1014.4
20260906171658 97 26 1.0 3.0 0.00 0.00 0.00 54 1014.5
20260906171154 97 261 5.0 6.0 0.00 0.00 0.00 55 1014.6
20260906170650 96 240 3.0 4.0 0.00 0.00 0.00 56 1014.8
20260906170149 96 290 2.0 5.0 0.00 0.00 0.00 57 1014.6
20260906165646 96 269 4.0 6.0 0.00 0.00 0.00 56 1014.8
20260906165141 96 280 4.0 5.0 0.00 0.00 0.00 56 1014.8
20260906164639 96 297 2.0 6.0 0.00 0.00 0.00 57 1015.0
20260906164135 95 173 4.0 5.0 0.00 0.00 0.00 57 1014.9
20260906163631 96 301 2.0 5.0 0.00 0.00 0.00 58 1015.1
20260906163127 95 346 2.0 3.0 0.00 0.00 0.00 58 1015.0
20260906162624 95 278 3.0 4.0 0.00 0.00 0.00 60 1015.0
20260906162118 94 92 1.0 4.0 0.00 0.00 0.00 60 1014.9
20260906161618 94 255 3.0 5.0 0.00 0.00 0.00 60 1015.1
20260906161117 94 296 3.0 6.0 0.00 0.00 0.00 60 1015.0
20260906160616 93 287 2.0 4.0 0.00 0.00 0.00 63 1014.9
20260906160115 93 264 3.0 5.0 0.00 0.00 0.00 62 1014.9
20260906155613 92 280 2.0 6.0 0.00 0.00 0.00 65 1015.1
20260906155109 93 275 2.0 4.0 0.00 0.00 0.00 64 1014.9
20260906154604 93 245 4.0 8.0 0.00 0.00 0.00 64 1015.0
20260906154103 91 260 1.0 4.0 0.00 0.00 0.00 67 1014.9
20260906153602 91 292 1.0 3.0 0.00 0.00 0.00 68 1014.9
20260906153057 93 248 4.0 4.0 0.00 0.00 0.00 66 1014.8
20260906152556 92 201 2.0 2.0 0.00 0.00 0.00 66 1014.8
20260906152051 91 273 2.0 4.0 0.00 0.00 0.00 68 1014.7
20260906151546 91 258 1.0 2.0 0.00 0.00 0.00 69 1014.6
20260906151042 90 273 0.0 3.0 0.00 0.00 0.00 71 1014.5
20260906150537 90 253 1.0 2.0 0.00 0.00 0.00 70 1014.9
20260906150032 89 240 0.0 2.0 0.00 0.00 0.00 71 1014.8
20260906145531 89 292 2.0 3.0 0.00 0.00 0.00 72 1014.9
20260906145026 88 285 2.0 4.0 0.00 0.00 0.00 73 1014.7
20260906144520 88 263 2.0 3.0 0.00 0.00 0.00 74 1014.6
20260906144016 88 242 2.0 3.0 0.00 0.00 0.00 74 1014.9
20260906143511 88 286 2.0 2.0 0.00 0.00 0.00 74 1014.6
20260906143007 87 247 1.0 4.0 0.00 0.00 0.00 75 1014.7
20260906142501 86 248 2.0 3.0 0.00 0.00 0.00 78 1014.8
20260906141956 83 113 0.0 2.0 0.00 0.00 0.00 82 1014.9
20260906141455 83 260 1.0 2.0 0.00 0.00 0.00 81 1014.9
20260906140950 84 229 0.0 2.0 0.00 0.00 0.00 81 1014.9
20260906140444 83 286 1.0 2.0 0.00 0.00 0.00 83 1014.7
20260906135937 83 275 1.0 3.0 0.00 0.00 0.00 82 1014.8
20260906135436 84 278 1.0 2.0 0.00 0.00 0.00 82 1014.6
20260906134932 84 294 1.0 3.0 0.00 0.00 0.00 81 1014.7
20260906134427 86 271 2.0 2.0 0.00 0.00 0.00 78 1014.5
20260906133922 87 296 1.0 2.0 0.00 0.00 0.00 77 1014.7
20260906133418 86 251 0.0 1.0 0.00 0.00 0.00 78 1014.7
20260906132913 85 221 0.0 2.0 0.00 0.00 0.00 80 1014.5
20260906132408 83 301 0.0 3.0 0.00 0.00 0.00 83 1014.6
20260906131904 84 291 0.0 3.0 0.00 0.00 0.00 82 1014.6
20260906131359 84 281 2.0 2.0 0.00 0.00 0.00 82 1014.5
20260906130855 83 205 1.0 1.0 0.00 0.00 0.00 84 1014.3
20260906130353 82 240 0.0 1.0 0.00 0.00 0.00 86 1014.4
20260906125853 81 263 0.0 2.0 0.00 0.00 0.00 88 1014.5
20260906125345 79 221 0.0 2.0 0.00 0.00 0.00 92 1014.4
20260906124840 77 247 0.0 1.0 0.00 0.00 0.00 94 1014.3
20260906124336 77 256 0.0 2.0 0.00 0.00 0.00 94 1014.3
20260906123835 77 269 0.0 0.0 0.00 0.00 0.00 95 1014.3
20260906123330 77 207 0.0 1.0 0.00 0.00 0.00 95 1014.0
20260906122829 77 235 0.0 1.0 0.00 0.00 0.00 95 1014.2
20260906122324 77 247 0.0 1.0 0.00 0.00 0.00 95 1014.1
20260906121821 77 233 1.0 1.0 0.00 0.00 0.00 94 1014.1
20260906121317 77 164 0.0 1.0 0.00 0.00 0.00 94 1014.1
20260906120813 77 135 0.0 2.0 0.00 0.00 0.00 95 1014.0
20260906120309 77 204 0.0 1.0 0.00 0.00 0.00 94 1013.9
20260906115804 77 249 0.0 1.0 0.00 0.00 0.00 95 1014.0
20260906115254 77 204 0.0 1.0 0.00 0.00 0.00 94 1013.9
20260906114753 77 89 0.0 1.0 0.00 0.00 0.00 94 1014.0
20260906114249 77 242 0.0 1.0 0.00 0.00 0.00 94 1013.7
20260906113743 77 236 0.0 1.0 0.00 0.00 0.00 94 1013.9
20260906113243 77 247 0.0 1.0 0.00 0.00 0.00 94 1013.9
20260906112737 77 237 0.0 1.0 0.00 0.00 0.00 94 1013.9
20260906112234 77 297 0.0 1.0 0.00 0.00 0.00 94 1013.8
20260906111733 77 228 0.0 0.0 0.00 0.00 0.00 94 1013.8
20260906111227 77 224 0.0 1.0 0.00 0.00 0.00 94 1013.8
20260906110722 77 235 0.0 1.0 0.00 0.00 0.00 93 1013.6
20260906110219 78 231 0.0 1.0 0.00 0.00 0.00 93 1013.5
20260906105717 78 242 0.0 0.0 0.00 0.00 0.00 93 1013.5
20260906105214 78 269 0.0 1.0 0.00 0.00 0.00 93 1013.5
20260906104713 78 269 0.0 1.0 0.00 0.00 0.00 93 1013.5
20260906104213 78 269 0.0 1.0 0.00 0.00 0.00 93 1013.5
20260906103710 78 241 1.0 1.0 0.00 0.00 0.00 93 1013.3
20260906103205 78 246 0.0 0.0 0.00 0.00 0.00 92 1013.3
20260906102701 78 234 0.0 1.0 0.00 0.00 0.00 92 1013.3
20260906102200 78 255 0.0 0.0 0.00 0.00 0.00 92 1013.4
20260906101659 78 257 0.0 1.0 0.00 0.00 0.00 92 1013.4
20260906101154 78 193 0.0 1.0 0.00 0.00 0.00 92 1013.3
20260906100650 78 240 1.0 1.0 0.00 0.00 0.00 92 1013.2
20260906100145 78 217 0.0 0.0 0.00 0.00 0.00 91 1013.2
20260906095640 78 240 0.0 1.0 0.00 0.00 0.00 91 1013.2
20260906095135 78 230 0.0 1.0 0.00 0.00 0.00 91 1013.2
20260906094634 78 142 0.0 1.0 0.00 0.00 0.00 91 1013.0
20260906094130 78 252 0.0 1.0 0.00 0.00 0.00 91 1012.9
20260906093626 79 205 0.0 0.0 0.00 0.00 0.00 90 1012.8
20260906093126 79 242 0.0 1.0 0.00 0.00 0.00 90 1012.8
20260906092621 79 255 0.0 0.0 0.00 0.00 0.00 90 1012.8
20260906092116 79 258 1.0 1.0 0.00 0.00 0.00 90 1013.0
20260906091612 79 265 0.0 1.0 0.00 0.00 0.00 90 1012.8
20260906091109 79 295 0.0 1.0 0.00 0.00 0.00 91 1012.8
20260906090609 79 230 0.0 0.0 0.00 0.00 0.00 90 1012.8
20260906090109 79 242 0.0 0.0 0.00 0.00 0.00 90 1012.9
20260906085608 79 255 0.0 0.0 0.00 0.00 0.00 90 1012.8
20260906085102 79 246 0.0 1.0 0.00 0.00 0.00 90 1012.8
20260906084557 79 205 0.0 0.0 0.00 0.00 0.00 89 1012.7
20260906084056 79 242 0.0 1.0 0.00 0.00 0.00 89 1012.7
20260906083552 79 255 0.0 1.0 0.00 0.00 0.00 89 1012.7
20260906083051 80 253 1.0 1.0 0.00 0.00 0.00 89 1012.8
20260906082547 80 229 1.0 1.0 0.00 0.00 0.00 89 1012.8
20260906082043 80 259 1.0 1.0 0.00 0.00 0.00 89 1012.7
20260906081538 80 211 1.0 1.0 0.00 0.00 0.00 88 1012.8
20260906081033 80 322 0.0 0.0 0.00 0.00 0.00 88 1012.9
20260906080530 80 265 1.0 2.0 0.00 0.00 0.00 88 1012.9
20260906080025 80 343 0.0 1.0 0.00 0.00 0.00 88 1013.1
20260906075519 80 293 0.0 1.0 0.00 0.00 0.00 87 1012.8
20260906075014 81 304 0.0 0.0 0.00 0.00 0.00 87 1013.3
20260906074509 81 233 1.0 2.0 0.00 0.00 0.00 87 1012.9
20260906074007 81 240 0.0 1.0 0.00 0.00 0.00 87 1013.0
20260906073503 81 269 0.0 1.0 0.00 0.00 0.00 87 1013.0
20260906072958 81 326 0.0 2.0 0.00 0.00 0.00 86 1013.1
20260906072453 81 6 0.0 0.0 0.00 0.00 0.00 86 1013.0
20260906071949 81 321 0.0 0.0 0.00 0.00 0.00 86 1013.0
20260906071446 81 173 0.0 0.0 0.00 0.00 0.00 86 1013.1
20260906070941 81 297 0.0 0.0 0.00 0.00 0.00 86 1013.1
20260906070437 81 205 0.0 0.0 0.00 0.00 0.00 85 1012.8
20260906065932 81 254 1.0 1.0 0.00 0.00 0.00 85 1012.9
20260906065427 81 297 0.0 0.0 0.00 0.00 0.00 85 1012.9
20260906064922 82 255 0.0 1.0 0.00 0.00 0.00 85 1012.9
20260906064419 82 256 0.0 1.0 0.00 0.00 0.00 84 1012.9
20260906063918 82 220 0.0 1.0 0.00 0.00 0.00 84 1012.9
20260906063414 82 240 0.0 1.0 0.00 0.00 0.00 84 1013.1
20260906062909 82 15 0.0 2.0 0.00 0.00 0.00 83 1013.2
20260906062408 82 332 0.0 1.0 0.00 0.00 0.00 83 1013.1
20260906061903 82 323 1.0 1.0 0.00 0.00 0.00 83 1013.0
20260906061359 82 292 0.0 2.0 0.00 0.00 0.00 83 1013.3
20260906060853 82 208 2.0 2.0 0.00 0.00 0.00 83 1013.2
20260906060352 82 304 0.0 1.0 0.00 0.00 0.00 82 1013.4
20260906055847 82 301 0.0 1.0 0.00 0.00 0.00 82 1013.4
20260906055343 82 315 1.0 2.0 0.00 0.00 0.00 82 1013.2
20260906054838 83 263 0.0 2.0 0.00 0.00 0.00 81 1013.3
20260906054332 83 269 0.0 1.0 0.00 0.00 0.00 81 1013.3
20260906053829 83 218 0.0 1.0 0.00 0.00 0.00 80 1013.3
20260906053325 83 298 1.0 2.0 0.00 0.00 0.00 80 1013.2
20260906052820 83 300 0.0 2.0 0.00 0.00 0.00 79 1013.2
20260906052316 83 294 0.0 2.0 0.00 0.00 0.00 79 1013.2
20260906051813 83 232 0.0 2.0 0.00 0.00 0.00 79 1013.3
20260906051312 83 258 0.0 2.0 0.00 0.00 0.00 78 1013.3
20260906050808 83 267 0.0 2.0 0.00 0.00 0.00 78 1013.0
20260906050303 84 294 0.0 2.0 0.00 0.00 0.00 78 1013.0
20260906045801 84 287 2.0 3.0 0.00 0.00 0.00 77 1013.2
20260906045256 84 323 2.0 2.0 0.00 0.00 0.00 77 1013.2
20260906044752 84 242 0.0 0.0 0.00 0.00 0.00 77 1012.8
20260906044247 84 233 1.0 1.0 0.00 0.00 0.00 76 1013.1
20260906043743 84 204 0.0 2.0 0.00 0.00 0.00 76 1013.1
20260906043239 84 275 0.0 2.0 0.00 0.00 0.00 76 1012.9
20260906042738 84 277 0.0 1.0 0.00 0.00 0.00 76 1013.2
20260906042237 84 202 0.0 2.0 0.00 0.00 0.00 75 1013.1
20260906041733 84 300 0.0 2.0 0.00 0.00 0.00 75 1013.2
20260906041228 85 281 2.0 3.0 0.00 0.00 0.00 75 1013.0
20260906040724 85 307 1.0 2.0 0.00 0.00 0.00 74 1013.1
20260906040219 85 307 1.0 2.0 0.00 0.00 0.00 74 1013.2
20260906035715 85 316 1.0 2.0 0.00 0.00 0.00 74 1013.2
20260906035210 85 5 0.0 2.0 0.00 0.00 0.00 74 1013.2
20260906034705 85 337 2.0 2.0 0.00 0.00 0.00 74 1013.2
20260906034159 85 287 1.0 2.0 0.00 0.00 0.00 74 1013.1
20260906033655 85 322 0.0 2.0 0.00 0.00 0.00 74 1013.2
20260906033156 85 207 1.0 2.0 0.00 0.00 0.00 74 1013.3
20260906032651 85 269 0.0 2.0 0.00 0.00 0.00 74 1013.0
20260906032146 86 322 0.0 1.0 0.00 0.00 0.00 73 1013.0
20260906031642 86 333 0.0 1.0 0.00 0.00 0.00 73 1012.9
20260906031137 86 300 1.0 2.0 0.00 0.00 0.00 73 1012.9
20260906030636 86 338 2.0 2.0 0.00 0.00 0.00 73 1013.1
20260906030132 86 258 0.0 2.0 0.00 0.00 0.00 72 1013.1
20260906025631 86 301 1.0 3.0 0.00 0.00 0.00 72 1013.3
20260906025131 86 272 2.0 2.0 0.00 0.00 0.00 72 1013.2
20260906024625 86 309 0.0 2.0 0.00 0.00 0.00 72 1013.1
20260906024119 86 283 2.0 3.0 0.00 0.00 0.00 71 1012.9
20260906023615 87 215 0.0 3.0 0.00 0.00 0.00 71 1012.9
20260906023109 87 333 1.0 3.0 0.00 0.00 0.00 70 1013.0
20260906022605 87 283 1.0 3.0 0.00 0.00 0.00 70 1012.7
20260906022101 87 322 0.0 3.0 0.00 0.00 0.00 70 1012.6
20260906021556 87 341 2.0 2.0 0.00 0.00 0.00 69 1012.6
20260906021055 87 262 1.0 2.0 0.00 0.00 0.00 69 1012.5
20260906020554 87 244 0.0 2.0 0.00 0.00 0.00 69 1012.4
20260906020054 87 251 1.0 3.0 0.00 0.00 0.00 68 1012.3
20260906015553 87 306 1.0 3.0 0.00 0.00 0.00 68 1012.3
20260906015047 88 267 1.0 3.0 0.00 0.00 0.00 67 1012.3
20260906014543 88 253 2.0 2.0 0.00 0.00 0.00 66 1012.2
20260906014038 88 280 0.0 2.0 0.00 0.00 0.00 66 1012.2
20260906013533 88 264 0.0 2.0 0.00 0.00 0.00 65 1012.2
20260906013029 88 272 2.0 2.0 0.00 0.00 0.00 65 1012.0
20260906012524 88 281 2.0 3.0 0.00 0.00 0.00 64 1011.6
20260906012023 89 282 2.0 3.0 0.00 0.00 0.00 64 1011.8
20260906011520 89 303 2.0 2.0 0.00 0.00 0.00 64 1011.7
20260906011019 89 291 1.0 2.0 0.00 0.00 0.00 64 1011.7
20260906010515 89 284 2.0 2.0 0.00 0.00 0.00 64 1011.6
20260906010011 89 257 1.0 4.0 0.00 0.00 0.00 64 1011.8
20260906005510 89 265 3.0 4.0 0.00 0.00 0.00 63 1011.9
20260906005009 90 307 2.0 6.0 0.00 0.00 0.00 62 1011.6
20260906004508 90 282 3.0 5.0 0.00 0.00 0.00 62 1011.8
20260906004003 91 326 2.0 5.0 0.00 0.00 0.00 61 1011.7
20260906003459 92 300 4.0 5.0 0.00 0.00 0.00 59 1011.6
20260906002954 93 329 3.0 8.0 0.00 0.00 0.00 57 1011.5
20260906002455 93 312 4.0 4.0 0.00 0.00 0.00 55 1011.4
20260906001950 94 327 5.0 6.0 0.00 0.00 0.00 55 1011.2
20260906001445 95 273 3.0 6.0 0.00 0.00 0.00 54 1011.5
20260906000939 95 243 5.0 6.0 0.00 0.00 0.00 54 1011.3
20260906000435 96 274 2.0 5.0 0.00 0.00 0.00 53 1011.3
20260905235924 96 310 5.0 5.0 0.00 0.00 0.00 52 1011.1
20260905235419 97 264 2.0 5.0 0.00 0.00 0.00 51 1011.1
20260905234914 98 258 2.0 5.0 0.00 0.00 0.00 48 1011.2
20260905234409 99 298 2.0 4.0 0.00 0.00 0.00 46 1011.1
20260905233904 100 240 6.0 6.0 0.00 0.00 0.00 45 1011.0
20260905233359 100 269 3.0 3.0 0.00 0.00 0.00 46 1010.6
20260905232858 100 263 3.0 5.0 0.00 0.00 0.00 46 1010.7
20260905232354 101 290 2.0 4.0 0.00 0.00 0.00 45 1010.9
20260905231849 100 293 3.0 4.0 0.00 0.00 0.00 45 1010.8
20260905231344 101 300 2.0 4.0 0.00 0.00 0.00 44 1011.0
20260905230841 101 256 4.0 5.0 0.00 0.00 0.00 43 1010.9
20260905230338 102 296 5.0 5.0 0.00 0.00 0.00 43 1011.1
20260905225838 104 89 0.0 2.0 0.00 0.00 0.00 42 1011.0
20260905225333 103 207 2.0 2.0 0.00 0.00 0.00 42 1010.8
20260905224827 102 260 4.0 4.0 0.00 0.00 0.00 44 1010.9
20260905224323 102 266 2.0 4.0 0.00 0.00 0.00 43 1010.6
20260905223818 102 273 2.0 2.0 0.00 0.00 0.00 42 1010.7
20260905223315 101 52 0.0 2.0 0.00 0.00 0.00 44 1010.8
20260905222810 100 257 1.0 4.0 0.00 0.00 0.00 45 1010.7
20260905222309 101 235 1.0 5.0 0.00 0.00 0.00 44 1010.7
20260905221806 101 261 3.0 3.0 0.00 0.00 0.00 44 1010.8
20260905221302 100 235 0.0 2.0 0.00 0.00 0.00 45 1010.9
20260905220757 100 277 3.0 5.0 0.00 0.00 0.00 46 1010.9
20260905220254 100 259 3.0 5.0 0.00 0.00 0.00 45 1010.9
20260905215753 100 247 4.0 5.0 0.00 0.00 0.00 45 1011.1
20260905215249 101 266 2.0 5.0 0.00 0.00 0.00 45 1011.1
20260905214744 101 280 4.0 4.0 0.00 0.00 0.00 44 1011.0
20260905214240 101 279 2.0 2.0 0.00 0.00 0.00 44 1011.1
20260905213735 100 78 2.0 3.0 0.00 0.00 0.00 45 1011.0
20260905213231 99 71 0.0 2.0 0.00 0.00 0.00 46 1011.2
20260905212726 98 289 2.0 3.0 0.00 0.00 0.00 47 1011.3
20260905212225 99 278 3.0 4.0 0.00 0.00 0.00 46 1011.3
20260905211725 99 262 3.0 4.0 0.00 0.00 0.00 46 1011.2
20260905211220 100 273 3.0 4.0 0.00 0.00 0.00 45 1011.5
20260905210717 101 259 4.0 6.0 0.00 0.00 0.00 45 1011.5
20260905210217 104 267 3.0 3.0 0.00 0.00 0.00 42 1011.4
20260905205711 103 206 2.0 4.0 0.00 0.00 0.00 42 1011.4
20260905205210 103 195 2.0 4.0 0.00 0.00 0.00 42 1011.6
20260905204705 104 184 3.0 3.0 0.00 0.00 0.00 41 1011.6
20260905204200 102 296 2.0 3.0 0.00 0.00 0.00 43 1011.8
20260905203700 101 194 2.0 4.0 0.00 0.00 0.00 43 1011.9
20260905203155 100 250 2.0 4.0 0.00 0.00 0.00 44 1012.0
20260905202651 100 266 4.0 4.0 0.00 0.00 0.00 44 1012.1
20260905202146 100 206 2.0 2.0 0.00 0.00 0.00 45 1012.0
20260905201642 100 201 2.0 4.0 0.00 0.00 0.00 45 1012.3